Погода в Трусово

Россия / Республика Коми     65°27′35″N   51°22′37″E
темп.,
°C
ветер,
м/с
пор.,
м/с
влажн.,
%
обл.,
%
осадки,
мм/ч
давл.,
гПа
погр.,
м
27 января, ср
ср2700:00−18в4797100 0.7 1018321
03:00−20в4898100 1.8 1018297
06:00−20в4898100 1.3 1017298
09:00−20в4898100 2.8 1015291
12:00−20в4897100 0.9 1014268
15:00−19в3697100 1.3 1012241
18:00−18в3797100 0.4 1009227
21:00−17всв3697100 1.7 1006223
28 января, чт
чт2800:00−16всв3597100 2.3 1005192
03:00−16св3597100 3.1 1004160
06:00−17ссв3597100 0.4 1003193
09:00−18ссв259798 0.8 1005213
12:00−19с259689 0.1 1008265
15:00−21ссв259793 0.3 1012301
18:00−25ссв269785 0.0 1016184
21:00−29ссв239891 0.1 102084
29 января, пт
пт2900:00−30св259762 0.0 1022139
03:00−30всв269781 0.0 1024178
06:00−30всв3696100 0.0 1025231
09:00−30в3796100 0.0 1025246
12:00−28в3796100 0.0 1025258
15:00−28в3796100 0.0 1025266
18:00−28в3996100 0.0 1023280
21:00−27в4897100 0.1 1022273
30 января, сб
сб3000:00−26в4897100 0.1 1020296
03:00−24в4997100 0.2 1017304
06:00−21в41096100 0.5 1015360
09:00−19в51295100 0.5 1012450
12:00−18вюв51194100 0.0 1011487
15:00−19вюв51093100 0.1 1010494
18:00−18юв41095100 0.4 1009478
21:00−19вюв41095100 0.5 1009413
31 января, вс
вс3100:00−20вюв4995100 0.1 1008404
03:00−20вюв4995100 0.1 1006456
06:00−19юв4996100 0.6 1004448
09:00−19юв4996100 0.8 1003396
12:00−18вюв3895100 0.1 1003374
15:00−18вюв3996100 0.1 1003266
18:00−15вюв3896100 0.1 1003253
21:00−14вюв3796100 0.2 1002251